Taganrog Yuzhny Airport

Jump to: basic info | weather | comments

Related pages: nearby airports | nearby navaids | notams | map

Basic information (top)

Codes: TGK URRT
Location: lon 47.200001, lat 38.849998, elev 118 ft / 36 m msl
Status: medium_airport

Weather (top)

Current conditions for Rostov-na-Donu Airport 40nm (73km) E (rec'd 2014/11/27 03:30Z):

URRR 270330Z 07008G12MPS P8000 OVC014 M04/M07 Q1024 04420052 NOSIG

Airport forecast for Rostov-na-Donu Airport 40nm (73km) E (rec'd 2014/11/27 03:00Z):

TAF URRR 270158Z 2703/2803 06008G13MPS 2100 -SHSN DRSN BR BKN007 SCT020CB 530005

Latest comments (top)

dgs: gsdg [read]

More... (top)

See also NOTAMs and nearby airports and navaids, or visit the Taganrog Yuzhny Airport page at the main OurAirports website..